GW0702 Weather Reports


time (UTC)temp
C
wind
direction
speed
KPH
gust
KPH
rain 1hr
cm
rain 24hr
cm
rain mn
cm
humidity
%
barometer
mb
20260504060120 11 19 17.7 29.0 0.00 0.00 0.00 63 1004.6
20260504050548 13 211 6.4 9.7 0.00 0.00 0.00 49 1001.5
20260504045542 13 229 8.0 17.7 0.00 0.00 0.00 47 1001.5
20260504045037 13 205 6.4 16.1 0.00 0.00 0.00 48 1001.4
20260504044535 13 227 12.9 19.3 0.00 0.00 0.00 48 1001.5
20260504044032 13 218 12.9 22.5 0.00 0.00 0.00 48 1001.5
20260504043529 13 210 9.7 24.1 0.00 0.00 0.00 48 1001.4
20260504043026 13 216 12.9 17.7 0.00 0.00 0.00 48 1001.5
20260504042523 13 222 19.3 19.3 0.00 0.00 0.00 49 1001.7
20260504042020 13 210 8.0 14.5 0.00 0.00 0.00 50 1001.8
20260504041516 13 212 8.0 16.1 0.00 0.00 0.00 50 1002.0
20260504041012 13 201 8.0 17.7 0.00 0.00 0.00 51 1002.1
20260504040510 13 218 6.4 12.9 0.00 0.00 0.00 51 1001.9
20260504040007 13 216 8.0 14.5 0.00 0.00 0.00 51 1002.1
20260504035504 13 215 8.0 11.3 0.00 0.00 0.00 50 1002.1
20260504034959 14 223 8.0 14.5 0.00 0.00 0.00 50 1002.4
20260504034457 14 217 8.0 17.7 0.00 0.00 0.00 50 1002.4
20260504033954 14 229 4.8 12.9 0.00 0.00 0.00 50 1002.6
20260504033452 14 221 9.7 12.9 0.00 0.00 0.00 50 1002.7
20260504032949 13 223 11.3 14.5 0.00 0.00 0.00 51 1002.6
20260504032446 14 214 9.7 16.1 0.00 0.00 0.00 50 1002.8
20260504031942 13 201 8.0 12.9 0.00 0.00 0.00 51 1002.7
20260504031439 13 225 3.2 9.7 0.00 0.00 0.00 51 1002.8
20260504030936 14 194 4.8 11.3 0.00 0.00 0.00 50 1002.9
20260504030433 15 218 8.0 11.3 0.00 0.00 0.00 48 1002.9
20260504025929 15 214 9.7 12.9 0.00 0.00 0.00 47 1003.2
20260504025426 15 215 4.8 11.3 0.00 0.00 0.00 47 1003.0
20260504024923 15 213 8.0 14.5 0.00 0.00 0.00 45 1003.1
20260504024420 15 228 9.7 12.9 0.00 0.00 0.00 45 1003.1
20260504023917 15 223 12.9 12.9 0.00 0.00 0.00 45 1003.1
20260504023413 16 223 6.4 12.9 0.00 0.00 0.00 43 1003.1
20260504022909 16 205 9.7 11.3 0.00 0.00 0.00 43 1003.2
20260504022406 16 202 11.3 11.3 0.00 0.00 0.00 42 1003.1
20260504021902 17 242 4.8 14.5 0.00 0.00 0.00 40 1003.1
20260504021400 16 239 6.4 6.4 0.00 0.00 0.00 42 1002.9
20260504020857 16 270 1.6 4.8 0.00 0.00 0.00 43 1002.9
20260504020353 18 209 4.8 11.3 0.00 0.00 0.00 38 1003.1
20260504015849 18 235 4.8 9.7 0.00 0.00 0.00 38 1003.1
20260504015346 18 253 4.8 14.5 0.00 0.00 0.00 38 1003.1
20260504014842 18 221 9.7 12.9 0.00 0.00 0.00 38 1003.3
20260504014338 18 203 11.3 12.9 0.00 0.00 0.00 37 1003.2
20260504013836 18 216 6.4 11.3 0.00 0.00 0.00 38 1003.5
20260504013334 19 223 8.0 12.9 0.00 0.00 0.00 38 1003.5
20260504012830 19 242 6.4 12.9 0.00 0.00 0.00 37 1003.4
20260504012328 19 201 12.9 12.9 0.00 0.00 0.00 37 1003.5
20260504011825 20 202 4.8 12.9 0.00 0.00 0.00 37 1003.7
20260504011321 20 211 8.0 11.3 0.00 0.00 0.00 37 1003.9
20260504010817 20 226 6.4 14.5 0.00 0.00 0.00 37 1003.8
20260504010313 20 216 6.4 12.9 0.00 0.00 0.00 37 1004.0
20260504005810 20 205 9.7 14.5 0.00 0.00 0.00 36 1004.0
20260504005307 20 225 6.4 9.7 0.00 0.00 0.00 36 1004.3
20260504004805 20 246 6.4 16.1 0.00 0.00 0.00 35 1004.3
20260504004302 20 197 9.7 14.5 0.00 0.00 0.00 34 1004.4
20260504003758 21 213 8.0 22.5 0.00 0.00 0.00 33 1004.2
20260504003255 21 217 8.0 22.5 0.00 0.00 0.00 31 1004.6
20260504002752 21 219 17.7 25.7 0.00 0.00 0.00 31 1004.5
20260504002249 22 228 8.0 19.3 0.00 0.00 0.00 30 1004.4
20260504001746 22 208 9.7 24.1 0.00 0.00 0.00 29 1004.6
20260504001243 22 223 17.7 27.4 0.00 0.00 0.00 29 1004.7
20260504000740 22 219 11.3 27.4 0.00 0.00 0.00 29 1004.7
20260504000237 23 221 11.3 30.6 0.00 0.00 0.00 29 1004.8
20260503235735 22 212 14.5 32.2 0.00 0.00 0.00 28 1004.8
20260503235232 23 260 19.3 25.7 0.00 0.00 0.00 27 1005.0
20260503234730 23 233 20.9 40.2 0.00 0.00 0.00 27 1004.9
20260503234228 23 218 17.7 30.6 0.00 0.00 0.00 27 1004.9
20260503233725 24 211 8.0 35.4 0.00 0.00 0.00 27 1005.1
20260503233220 23 227 14.5 30.6 0.00 0.00 0.00 27 1005.2
20260503232717 23 219 12.9 22.5 0.00 0.00 0.00 27 1005.3
20260503232214 23 270 11.3 25.7 0.00 0.00 0.00 27 1005.5
20260503231713 23 222 20.9 20.9 0.00 0.00 0.00 27 1005.4
20260503231209 23 220 12.9 32.2 0.00 0.00 0.00 26 1005.5
20260503230705 23 221 11.3 32.2 0.00 0.00 0.00 26 1005.6
20260503230203 23 280 4.8 22.5 0.00 0.00 0.00 27 1005.5
20260503225700 23 220 17.7 27.4 0.00 0.00 0.00 26 1006.0
20260503225159 23 224 14.5 30.6 0.00 0.00 0.00 25 1006.0
20260503224657 24 230 17.7 35.4 0.00 0.00 0.00 24 1005.8
20260503224155 23 225 11.3 32.2 0.00 0.00 0.00 26 1006.1
20260503223653 23 225 16.1 32.2 0.00 0.00 0.00 25 1006.1
20260503223149 24 214 33.8 33.8 0.00 0.00 0.00 24 1006.5
20260503222646 23 222 14.5 19.3 0.00 0.00 0.00 25 1006.5
20260503222144 23 286 11.3 22.5 0.00 0.00 0.00 25 1006.4
20260503221642 24 218 9.7 32.2 0.00 0.00 0.00 24 1006.6
20260503221139 23 241 20.9 24.1 0.00 0.00 0.00 25 1006.6
20260503220636 23 212 14.5 32.2 0.00 0.00 0.00 25 1006.6
20260503220132 24 213 9.7 29.0 0.00 0.00 0.00 24 1006.7
20260503215630 24 238 9.7 27.4 0.00 0.00 0.00 25 1006.8
20260503215126 23 252 17.7 29.0 0.00 0.00 0.00 25 1006.8
20260503214625 23 227 9.7 33.8 0.00 0.00 0.00 25 1006.8
20260503214120 23 206 19.3 33.8 0.00 0.00 0.00 26 1006.9
20260503213615 24 188 4.8 17.7 0.00 0.00 0.00 25 1007.3
20260503213110 23 209 11.3 32.2 0.00 0.00 0.00 27 1007.4
20260503212608 23 218 11.3 40.2 0.00 0.00 0.00 27 1007.4
20260503212105 23 237 14.5 37.0 0.00 0.00 0.00 27 1007.4
20260503211603 23 215 9.7 30.6 0.00 0.00 0.00 27 1007.5
20260503211058 23 227 24.1 46.7 0.00 0.00 0.00 25 1007.8
20260503210555 23 243 9.7 19.3 0.00 0.00 0.00 26 1008.0
20260503210050 23 233 11.3 20.9 0.00 0.00 0.00 26 1008.3
20260503205547 23 217 14.5 22.5 0.00 0.00 0.00 27 1008.3
20260503205043 23 239 3.2 24.1 0.00 0.00 0.00 26 1008.4
20260503204541 23 219 19.3 38.6 0.00 0.00 0.00 25 1008.7
20260503204038 23 225 20.9 29.0 0.00 0.00 0.00 26 1008.6
20260503203535 23 245 11.3 41.8 0.00 0.00 0.00 27 1008.7
20260503203032 22 272 9.7 32.2 0.00 0.00 0.00 28 1009.0
20260503202530 23 259 27.4 29.0 0.00 0.00 0.00 28 1009.0
20260503202028 23 221 12.9 35.4 0.00 0.00 0.00 26 1009.1
20260503201526 22 207 6.4 25.7 0.00 0.00 0.00 28 1009.1
20260503201022 22 202 14.5 30.6 0.00 0.00 0.00 27 1009.1
20260503200518 23 257 12.9 25.7 0.00 0.00 0.00 30 1009.3
20260503200016 22 261 12.9 27.4 0.00 0.00 0.00 28 1009.6
20260503195513 22 214 22.5 29.0 0.00 0.00 0.00 27 1009.6
20260503195009 22 220 8.0 24.1 0.00 0.00 0.00 28 1009.9
20260503194507 22 219 20.9 32.2 0.00 0.00 0.00 27 1009.9
20260503194006 22 228 12.9 37.0 0.00 0.00 0.00 26 1009.9
20260503193502 22 221 8.0 19.3 0.00 0.00 0.00 29 1009.9
20260503192958 22 218 9.7 25.7 0.00 0.00 0.00 29 1010.1
20260503192454 22 299 6.4 24.1 0.00 0.00 0.00 29 1010.2
20260503191949 22 224 14.5 20.9 0.00 0.00 0.00 30 1010.3
20260503191448 22 216 9.7 32.2 0.00 0.00 0.00 30 1010.7
20260503190943 22 225 16.1 29.0 0.00 0.00 0.00 29 1010.7
20260503190441 22 319 14.5 17.7 0.00 0.00 0.00 28 1010.7
20260503185938 21 220 19.3 24.1 0.00 0.00 0.00 29 1010.7
20260503185434 21 222 20.9 22.5 0.00 0.00 0.00 29 1011.0
20260503184933 21 202 9.7 17.7 0.00 0.00 0.00 30 1011.0
20260503184431 21 203 9.7 30.6 0.00 0.00 0.00 30 1011.0
20260503183927 21 259 9.7 19.3 0.00 0.00 0.00 30 1011.6
20260503183423 21 355 3.2 12.9 0.00 0.00 0.00 31 1011.5
20260503182921 21 201 17.7 27.4 0.00 0.00 0.00 29 1011.8
20260503182420 21 217 14.5 20.9 0.00 0.00 0.00 30 1011.8
20260503181916 20 220 16.1 33.8 0.00 0.00 0.00 31 1011.9
20260503181413 21 232 16.1 30.6 0.00 0.00 0.00 30 1012.1
20260503180910 20 237 3.2 32.2 0.00 0.00 0.00 32 1012.2
20260503180408 20 218 19.3 19.3 0.00 0.00 0.00 31 1012.3
20260503175904 20 250 14.5 17.7 0.00 0.00 0.00 32 1012.5
20260503175403 21 233 11.3 16.1 0.00 0.00 0.00 30 1012.6
20260503174858 20 349 12.9 12.9 0.00 0.00 0.00 31 1012.6
20260503174356 20 221 12.9 17.7 0.00 0.00 0.00 32 1012.7
20260503173851 20 222 20.9 22.5 0.00 0.00 0.00 31 1013.1
20260503173348 20 273 6.4 22.5 0.00 0.00 0.00 32 1013.1
20260503172844 20 217 20.9 20.9 0.00 0.00 0.00 31 1013.2
20260503172342 20 7 6.4 19.3 0.00 0.00 0.00 33 1013.2
20260503171838 18 218 8.0 22.5 0.00 0.00 0.00 33 1013.5
20260503171335 19 203 22.5 29.0 0.00 0.00 0.00 32 1013.4
20260503170832 18 217 16.1 20.9 0.00 0.00 0.00 32 1013.7
20260503170329 18 250 12.9 20.9 0.00 0.00 0.00 32 1013.8
20260503150721 15 198 11.3 29.0 0.00 0.00 0.00 40 1015.0
20260503150217 15 204 11.3 19.3 0.00 0.00 0.00 38 1015.1
20260503140142 11 202 9.7 9.7 0.00 0.00 0.00 57 1015.8
20260503131111 6 265 4.8 11.3 0.00 0.00 0.00 68 1016.0
20260503130609 6 228 8.0 12.9 0.00 0.00 0.00 69 1016.1
20260503130106 5 198 1.6 11.3 0.00 0.00 0.00 70 1016.1
20260503110459 0 274 3.2 8.0 0.00 0.00 0.00 84 1016.1
20260503090350 3 220 8.0 8.0 0.00 0.00 0.00 74 1016.4
20260503081317 6 356 3.2 6.4 0.00 0.00 0.00 67 1015.9
20260503080814 6 358 4.8 9.7 0.00 0.00 0.00 67 1016.0
20260503080311 6 303 1.6 8.0 0.00 0.00 0.00 67 1016.1
20260503072748 6 344 6.4 9.7 0.00 0.00 0.00 69 1016.0
20260503072245 6 339 6.4 6.4 0.00 0.00 0.00 69 1015.9
20260503071741 7 335 6.4 9.7 0.00 0.00 0.00 69 1015.9
20260503071238 7 353 1.6 6.4 0.00 0.00 0.00 69 1015.8
20260503070734 7 320 8.0 8.0 0.00 0.00 0.00 69 1015.8
20260503070232 7 266 3.2 8.0 0.00 0.00 0.00 68 1015.8